Location: Caltech
(34.1382°N, 118.1253°W)
Time: 06:52:00
(UTC-08:00)

JAS-1B - Visible Passes

Search period start: 24 February 2017 00:00
Search period end: 06 March 2017 00:00
Orbit: 912 x 1743 km, 99.0° (Epoch: 24 February)

Date Brightness Start Highest point End Pass type
(mag) Time Alt. Az. Time Alt. Az. Time Alt. Az.
24 Feb 10.1 01:04:03 13° NE 01:04:03 13° NE 01:06:16 10° NNE visible
24 Feb 9.3 02:56:18 27° N 02:56:18 27° N 02:59:55 10° N visible
24 Feb 10.5 18:18:18 10° NNW 18:21:25 12° NW 18:24:29 10° WNW visible
25 Feb 9.9 01:23:08 17° NE 01:23:08 17° NE 01:26:37 10° NNE visible
25 Feb 9.2 03:15:22 27° NNW 03:15:22 27° NNW 03:19:03 10° NNW visible
26 Feb 9.7 01:42:12 22° NNE 01:42:12 22° NNE 01:46:29 10° N visible
26 Feb 9.1 03:34:26 26° NNW 03:34:26 26° NNW 03:38:05 10° NNW visible
27 Feb 9.4 02:01:17 27° NNE 02:01:17 27° NNE 02:06:05 10° N visible
27 Feb 9.2 03:53:31 24° NW 03:53:31 24° NW 03:56:58 10° NNW visible
28 Feb 9.2 02:20:22 33° NNE 02:20:22 33° NNE 02:25:32 10° N visible
28 Feb 9.2 04:12:36 21° NW 04:12:36 21° NW 04:15:40 10° NNW visible
01 Mar 10.2 00:47:12 12° NE 00:47:21 12° NE 00:50:22 10° NNE visible
01 Mar 8.9 02:39:26 37° N 02:39:26 37° N 02:44:52 10° N visible
01 Mar 9.3 04:31:40 17° NW 04:31:40 17° NW 04:34:09 10° NW visible
01 Mar 10.4 18:02:17 10° NNW 18:06:33 14° NW 18:10:40 10° W visible
02 Mar 10.0 01:06:17 17° NE 01:06:17 17° NE 01:11:09 10° NNE visible
02 Mar 8.8 02:58:31 40° N 02:58:31 40° N 03:04:04 10° N visible
02 Mar 9.5 04:50:45 13° NW 04:50:45 13° NW 04:52:16 10° NW visible
03 Mar 9.7 01:25:22 22° NE 01:25:22 22° NE 01:31:11 10° NNE visible
03 Mar 8.7 03:17:36 40° NNW 03:17:36 40° NNW 03:23:10 10° NNW visible
04 Mar 9.4 01:44:27 29° NE 01:44:27 29° NE 01:50:52 10° N visible
04 Mar 8.7 03:36:41 37° NW 03:36:41 37° NW 03:42:09 10° NNW visible
05 Mar 9.1 02:03:32 37° NE 02:03:32 37° NE 02:10:24 10° N visible
05 Mar 8.8 03:55:46 32° NW 03:55:46 32° NW 04:00:58 10° NNW visible
